Regional Weather Roundup
Issued by NWS

Home | Current Version | Previous Version | Text Only | Print | Product List | Glossary Off
Versions: 1 2 3 4 5 6 7 8 9 10 11 12 13 14 15 16 17 18 19 20 21 22 23 24 25 26 27 28 29 30 31 32 33 34 35 36 37 38 39 40 41 42 43 44 45 46 47 48 49 50

000
ASUS45 KSLC 271010
RWRUT

UTAH REGIONAL WEATHER ROUNDUP
NATIONAL WEATHER SERVICE SALT LAKE CITY UT
400 AM MDT WED MAY 27 2015

UTZ001>011-023>025-271100-

NORTHERN UTAH

CITY           SKY/WX    TMP DP  RH WIND       PRES   REMARKS
BRIGHAM CITY   CLEAR     52  49  91 CALM      30.06S
HILL AFB       CLEAR     50  47  90 E8        30.06F
LOGAN          PTCLDY    46  44  93 NE5       30.06S
OGDEN          CLEAR     50  47  89 S7        30.05F
PROVO AIRPORT  PTCLDY    48  43  81 SE6       30.08F
SALT LAKE CITY PTCLDY    53  47  79 SE5       30.05S
VERNAL         CLOUDY    50  47  89 NW3       30.11S
WENDOVER       PTCLDY    52  48  87 CALM      30.03S
HEBER CITY     PTCLDY    41  39  93 CALM      30.11S
WEST JORDAN    CLEAR     52  46  82 SW6       30.07S

$$

UTZ012>022-026-027-271100-

SOUTHERN/CENTRAL UTAH

CITY           SKY/WX    TMP DP  RH WIND       PRES   REMARKS
BLANDING       CLEAR     48  43  85 NE6       30.20S
BRYCE CANYON   CLOUDY    42  38  85 W5        30.21S
CEDAR CITY     MOCLDY    47  44  90 E7        30.11R
DELTA          CLOUDY    50  43  79 S10       30.08S
HANKSVILLE     MOCLDY    54  43  66 NW3       30.09S
MILFORD        PTCLDY    49  46  90 W9        30.10R
MOAB/CYNLANDS  PTCLDY    55  46  71 SE7       30.07S
PRICE          CLEAR     43  37  79 N7        30.12S
ST GEORGE      MOSUNNY   63  36  36 E3        29.99F

$$

REGIONAL REPORTS     COLORADO/ARIZONA

CITY           SKY/WX    TMP DP  RH WIND       PRES   REMARKS
CRAIG, CO      CLOUDY    48  43  82 W3        30.14R
GRAND JUNCTION PTCLDY    45  45 100 CALM      30.11R
RIFLE          MOCLDY    47  44  90 CALM      30.13S
MONTROSE       PTCLDY    44  42  93 SW3       30.18R
CORTEZ         PTCLDY    45  40  82 CALM      30.15S
PAGE, AZ       CLEAR     60  44  55 CALM      30.04F
GRAND CANYON   MOCLDY    39  35  86 CALM      30.17S
KINGMAN        PTCLDY    58  25  28 SE6       29.98S
FLAGSTAFF      CLOUDY    42  33  70 CALM      30.19S

$$

REGIONAL REPORTS    NEVADA/IDAHO/WYOMING

CITY           SKY/WX    TMP DP  RH WIND       PRES   REMARKS
LAS VEGAS, NV  CLOUDY    74  34  23 SW8       29.85R
ELY            MOCLDY    47  42  83 CALM      30.11S
ELKO           CLOUDY    50  46  86 N8        30.06R
POCATELLO, ID  MOCLDY    48  46  93 NW8       30.04R
BURLEY         CLOUDY    55  44  66 SE3       29.99S
EVANSTON, WY   PTCLDY    41  39  93 S7        30.14R
ROCK SPRINGS   MOCLDY    44  42  93 SW12      30.11S
KEMMERER       PTCLDY    37  37 100 CALM      30.13F

$$



USA.gov is the U.S. government's official web portal to all federal, state and local government web resources and services.